Hundvaag 1 weather for Sep 1997
Month no. 123
Obs.
Da.
Temp. Dew Point Precip. Wind
Speed
Wind gusts Cloud cover Press. Humidity Wind dir. Sunny OPT
01.09.1997 18,2   0,0     7       1  
02.09.1997 16,4   0,0     6       1  
03.09.1997 13,6   15,0     9       1  
04.09.1997 15,1   11,0     0          
05.09.1997 13,8   10,0     5       1  
06.09.1997 13,4   48,0     0          
07.09.1997 11,0   28,0     1          
08.09.1997 14,1   23,0     0          
09.09.1997 9,3   11,0     0          
10.09.1997 11,0   8,0     0          
11.09.1997 12,6   4,0     0          
12.09.1997 11,6   5,0     0          
13.09.1997 7,6   22,0     0          
14.09.1997 9,4   9,0     0          
15.09.1997 10,2   10,0     0          
16.09.1997 10,6   10,0     0          
17.09.1997 11,0   37,0     3          
18.09.1997 8,5   3,0     0          
19.09.1997 7,6   0,0     9       1  
20.09.1997 8,1   0,0     3          
21.09.1997 10,7   0,0     3          
22.09.1997 10,6   0,0     0          
23.09.1997 9,9   0,0     0          
24.09.1997 10,4   0,0     9       1  
25.09.1997 6,8   0,0     10       1  
26.09.1997 11,5   0,0     1          
27.09.1997 7,0   0,0     10       1  
28.09.1997 11,9   0,0     1          
29.09.1997 11,4   0,0     0          
30.09.1997 9,6   5,0     10       1  
                       
Avrg/Sum 11,1   259,0     2,9       9